This is the latest recevied weather packets stored in our database for station/object dl1wer-13. If no packets are shown the sender has not sent any weather packets the latest 1 day(s).
| Time | Temp. | Humidity | Pressure | Rain* | Wind** | Luminosity | Snow |
|---|---|---|---|---|---|---|---|
| 1777945820 | 10° C | 84% | 1037 hPa | 0 mm | 0 m/s | - | - |
| 1777945220 | 10° C | 85% | 1037.1 hPa | 0 mm | 0 m/s | - | - |
| 1777944622 | 10.56° C | 86% | 1037.5 hPa | 0 mm | 0 m/s | - | - |
| 1777944020 | 10.56° C | 87% | 1037.3 hPa | 0 mm | 0.45 m/s, 150° | - | - |
| 1777943421 | 10° C | 87% | 1037.6 hPa | 0 mm | 0 m/s | - | - |
| 1777942821 | 10° C | 86% | 1037.4 hPa | 0 mm | 0 m/s | - | - |
| 1777942221 | 10° C | 85% | 1037.3 hPa | 0 mm | 0 m/s | - | - |
| 1777941620 | 10.56° C | 85% | 1037.3 hPa | 0 mm | 0 m/s | - | - |
| 1777941021 | 10.56° C | 84% | 1037.5 hPa | 0 mm | 0 m/s | - | - |
| 1777940420 | 10.56° C | 83% | 1037.6 hPa | 0 mm | 0.45 m/s, 282° | - | - |
| 1777939821 | 11.11° C | 82% | 1037.6 hPa | 0 mm | 0.45 m/s, 270° | - | - |
| 1777939221 | 11.11° C | 82% | 1037.7 hPa | 0 mm | 0.45 m/s, 297° | - | - |
| 1777938620 | 11.67° C | 82% | 1037.7 hPa | 0 mm | 0.89 m/s, 303° | - | - |
| 1777938020 | 12.22° C | 82% | 1038 hPa | 0 mm | 0.45 m/s, 288° | - | - |
| 1777937421 | 12.22° C | 81% | 1037.9 hPa | 0 mm | 0 m/s | - | - |
| 1777936821 | 12.22° C | 80% | 1037.8 hPa | 0 mm | 0 m/s | - | - |
| 1777936221 | 12.22° C | 79% | 1038.2 hPa | 0 mm | 0 m/s | - | - |
| 1777935621 | 12.78° C | 76% | 1038.1 hPa | 0 mm | 0 m/s | - | - |
| 1777935021 | 12.78° C | 75% | 1038.2 hPa | 0 mm | 0 m/s | - | - |
| 1777934420 | 13.33° C | 75% | 1038.1 hPa | 0 mm | 0.45 m/s, 158° | - | - |
| 1777933821 | 13.33° C | 74% | 1038.2 hPa | 0 mm | 0 m/s | - | - |
* Rain latest hour (hover to see other rain measurements)
** Current wind speed in m/s (hover to see current wind gust speed)